Regional Weather Roundup
Issued by NWS

Home | Current Version | Previous Version | Text Only | Print | Product List | Glossary Off
Versions: 1 2 3 4 5 6 7 8 9 10 11 12 13 14 15 16 17 18 19 20 21 22 23 24 25 26 27 28 29 30 31 32 33 34 35 36 37 38 39 40 41 42 43 44 45 46 47 48 49 50

133
ASUS44 KJAN 260410
RWRMS

MISSISSIPPI HOURLY WEATHER ROUNDUP
NATIONAL WEATHER SERVICE JACKSON MS
1100 PM CDT SAT OCT 25 2014

NOTE: "FAIR: INDICATES FEW OR NO CLOUDS BELOW 12,000 FEET WITH NO
SIGNIFICANT WEATHER AND/OR OBSTRUCTIONS TO VISIBILITY.

MSZ001>002-007>008-010>013-018>021-025>028-034>036-260500-
NORTHWEST MISSISSIPPI

CITY           SKY/WX    TMP DP  RH WIND       PRES   REMARKS
CLARKSDALE     FAIR      68  66  94 SW5       30.05F
CLEVELAND      FAIR      65  64  94 SW5       30.05S
GREENWOOD      CLEAR     62  60  93 CALM      30.06S FOG
GREENVILLE     CLEAR     63  61  93 SW5       30.05F
GRENADA          N/A    N/A N/A N/A MISG        N/A
OLIVE BRANCH   CLEAR     63  63 100 CALM      30.04F
OXFORD         FAIR      59  57  94 CALM      30.07S
TUNICA         CLEAR     64  61  88 S3        30.05S
$$

MSZ003>006-009-014>017-022>024-029>033-037>039-260500-
NORTHEAST MISSISSIPPI

CITY           SKY/WX    TMP DP  RH WIND       PRES   REMARKS
COLUMBUS AFB   CLEAR     59  59 100 CALM      30.06F FOG
CORINTH        FAIR      61  59  94 CALM      30.04S FOG
GOLDN TRIANGLE CLEAR     61  55  82 CALM      30.06S
STARKVILLE     FAIR      57  57 100 CALM      30.07S FOG
TUPELO         CLEAR     63  60  90 CALM      30.05F
$$

MSZ040-058-260500-
CENTRAL MISSISSIPPI

CITY           SKY/WX    TMP DP  RH WIND       PRES   REMARKS
JACKSON INTL   CLEAR     60  58  92 CALM      30.09S
JACKSON HAWKNS CLEAR     63  59  87 CALM      30.09S
MERIDIAN KEY   CLEAR     58  56  93 S3        30.09S
MERIDIAN NAS   CLEAR     62  59  90 W3        30.08S
RAYMOND        FOG       57  54  88 MISG      30.09S VSB 3/4
VICKSBURG      CLEAR     58  56  93 CALM      30.08S
$$

MSZ059>079-260500-
SOUTH MISSISSIPPI

CITY           SKY/WX    TMP DP  RH WIND       PRES   REMARKS
BROOKHAVEN     FAIR      57  57 100 CALM      30.11F FOG
COLUMBIA         N/A     57  57 100 MISG        N/A
HATTIESBURG    CLEAR     60  58  92 CALM      30.09F
MCCOMB         CLEAR     60  56  86 CALM      30.10F
NATCHEZ        CLEAR     59  55  88 CALM      30.10F
PINE BELT      CLEAR     59  54  82 CALM      30.10F
$$

MSZ080>082-260500-
COASTAL MISSISSIPPI

CITY           SKY/WX    TMP DP  RH WIND       PRES   REMARKS
BILOXI         CLEAR     66  62  86 NW2       30.08S
PASCAGOULA     CLEAR     54  53  97 CALM      30.08S
GULFPORT       CLEAR     62  58  86 CALM      30.08S
$$



USA.gov is the U.S. government's official web portal to all federal, state and local government web resources and services.